Regional Weather Roundup
Issued by NWS Northern Indiana

Home | Current Version | Previous Version | Text Only | Print | Product List | Glossary Off
Versions: 1 2 3 4 5 6 7 8 9 10 11 12 13 14 15 16 17 18 19 20 21 22 23 24 25 26 27 28 29 30 31 32 33 34 35 36 37 38 39 40 41 42 43 44 45 46 47 48 49 50

000
ASUS43 KIWX 250710
RWRIWX

KIWX WEATHER ROUNDUP
NATIONAL WEATHER SERVICE NORTHERN INDIANA
300 AM EDT FRI JUL 25 2014

NOTE: "FAIR" INDICATES FEW OR NO CLOUDS BELOW 12,000 FEET WITH NO
SIGNIFICANT WEATHER AND/OR OBSTRUCTIONS TO VISIBILITY.

* THESE STATIONS ARE NOT UNDER NWS QUALITY CONTROL. THEY ALSO MAY NOT
  REPORT WEATHER SUCH AS PRECIPITATION OR FOG.

INZ001>027-250800-
NORTHERN INDIANA

CITY           SKY/WX    TMP DP  RH WIND       PRES   REMARKS
GARY*          CLEAR     54  52  94 CALM      30.07R
VALPARAISO     CLEAR     51  48  89 CALM      30.06F
MICHIGAN CITY* CLEAR     50  50 100 CALM      30.05F FOG
LAPORTE*       CLEAR     48  48 100 CALM      30.06F
KNOX*          CLEAR     50  48  92 SE3       30.05F
SOUTH BEND     FAIR      58  51  78 SE3       30.06F
GOSHEN         CLEAR     55  52  89 CALM      30.06S
MONTICELLO*    CLEAR     55  53  91 CALM      30.06R
LOGANSPORT*    CLEAR     52  50  93 CALM      30.08R
ROCHESTER*     CLEAR     55  52  88 CALM      30.07R
WARSAW*        CLEAR     54  52  94 CALM      30.07R
ANGOLA*        CLEAR     54  54 100 CALM      30.06F
FORT WAYNE     PTCLDY    57  52  83 SW3       30.06F
HUNTINGTON*    CLEAR     54  52  94 CALM      30.05F
PERU/GRISSOM   CLEAR     56  56 100 CALM      30.06F
MARION*        CLEAR     53  52  96 CALM      30.07F

$$
INZ028>050-250800-
CENTRAL INDIANA

CITY           SKY/WX    TMP DP  RH WIND       PRES   REMARKS
LAFAYETTE      CLEAR     54  53  97 CALM      30.07S
KOKOMO*        CLEAR     54  50  87 CALM      30.07S
MUNCIE*        PTCLDY    58  51  78 S3        30.07S
INDIANAPOLIS   CLEAR     59  53  80 CALM      30.06S

$$
MIZ043>046-050>051-056>058-064>065-071>073-077>080-250800-
SOUTHWEST LOWER MICHIGAN

CITY           SKY/WX    TMP DP  RH WIND       PRES   REMARKS
BATTLE CREEK   CLEAR     54  49  83 CALM      30.06F
BENTON HARBOR  CLEAR     49  48  97 CALM      30.05F
COLDWATER*     CLEAR     55  53  94 CALM      30.06S
HILLSDALE*     CLEAR     51  51  99 CALM      30.06S
HOLLAND        PTCLDY    52  49  89 CALM      30.05F
GRAND RAPIDS   PTCLDY    56  52  86 S3        30.05F
KALAMAZOO      CLEAR     54  49  83 CALM      30.06F
STURGIS*       CLEAR     54  52  94 CALM      30.06S
THREE RIVERS*  FAIR      53  53  98 CALM      30.07S

$$
OHZ001>008-015>018-024>025-250800-
NORTHWEST OHIO

CITY           SKY/WX    TMP DP  RH WIND       PRES   REMARKS
WAUSEON*       FAIR      52  50  93 CALM      30.06F
DEFIANCE       CLEAR     54  51  90 CALM      30.06F
FINDLAY        CLEAR     53  51  93 CALM      30.06F
TOLEDO EXPRESS CLEAR     52  51  97 CALM      30.05F
TOLEDO METCALF CLEAR     56  50  80 CALM      30.06F
LIMA           CLEAR     57  50  77 SE3       30.07F

$$
&&


USA.gov is the U.S. government's official web portal to all federal, state and local government web resources and services.